Time,TemperatureF,DewpointF,PressureIn,WindDirection,WindDirectionDegrees,WindSpeedMPH,WindSpeedGustMPH,Humidity,HourlyPrecipIn,Conditions,Clouds,dailyrainin,SolarRadiationWatts/m^2,SoftwareType,DateUTC
2013-10-31 00:00:00,60.6,59.8,30.21,NNW,341,0.0,0.0,97,0.00,,CLR,0.00,0.00,VWS V14.01,2013-10-31 04:00:00,
2013-10-31 00:01:00,60.6,59.8,30.21,NNW,341,0.0,0.0,97,0.00,,CLR,0.00,0.00,VWS V14.01,2013-10-31 04:01:00,
2013-10-31 00:02:00,60.6,59.8,30.21,NNW,341,0.0,0.0,97,0.00,,CLR,0.00,0.00,VWS V14.01,2013-10-31 04:02:00,
2013-10-31 00:07:00,60.5,59.7,30.21,NNW,341,0.0,0.0,97,0.00,,CLR,0.00,0.00,VWS V14.01,2013-10-31 04:07:00,
2013-10-31 00:12:00,60.3,59.5,30.20,NNW,341,0.0,0.0,97,0.00,,CLR,0.00,0.00,VWS V14.01,2013-10-31 04:12:00,
2013-10-31 00:17:00,60.2,59.3,30.20,NNW,341,0.0,0.0,97,0.00,,CLR,0.00,0.00,VWS V14.01,2013-10-31 04:17:00,
2013-10-31 00:22:00,60.1,59.2,30.20,NNW,341,0.0,0.0,97,0.00,,,0.00,0.00,VWS V14.01,2013-10-31 04:22:00,
2013-10-31 00:27:00,60.1,59.2,30.20,NNW,341,0.0,0.0,97,0.00,,,0.00,0.00,VWS V14.01,2013-10-31 04:27:00,
2013-10-31 00:32:00,59.9,59.0,30.20,NNW,341,0.0,0.0,97,0.00,,,0.00,0.00,VWS V14.01,2013-10-31 04:32:00,
2013-10-31 00:37:00,59.9,59.0,30.20,NNW,341,0.0,0.0,97,0.00,,,0.00,0.00,VWS V14.01,2013-10-31 04:37:00,
2013-10-31 00:42:00,59.9,59.0,30.20,NNW,341,0.0,0.0,97,0.00,,CLR,0.00,0.00,VWS V14.01,2013-10-31 04:42:00,
2013-10-31 00:46:00,60.0,59.2,30.20,NNW,341,0.0,0.0,97,0.00,,CLR,0.00,0.00,VWS V14.01,2013-10-31 04:46:00,
2013-10-31 00:51:00,59.8,59.0,30.20,NNW,341,0.0,0.0,97,0.00,,CLR,0.00,0.00,VWS V14.01,2013-10-31 04:51:00,
2013-10-31 00:56:00,59.8,59.0,30.20,NNW,341,0.0,0.0,97,0.00,,CLR,0.00,0.00,VWS V14.01,2013-10-31 04:56:00,
2013-10-31 01:01:00,59.7,58.8,30.20,NNW,341,0.0,0.0,97,0.00,,,0.00,0.00,VWS V14.01,2013-10-31 05:01:00,
2013-10-31 01:07:00,59.6,58.8,30.20,NNW,341,0.0,0.0,97,0.00,,,0.00,0.00,VWS V14.01,2013-10-31 05:07:00,
2013-10-31 01:12:00,59.4,58.5,30.20,NNW,341,0.0,0.0,97,0.00,,,0.00,0.00,VWS V14.01,2013-10-31 05:12:00,
2013-10-31 01:17:00,59.5,58.7,30.19,NNW,341,0.0,0.0,97,0.00,,,0.00,0.00,VWS V14.01,2013-10-31 05:17:00,
2013-10-31 01:22:00,59.5,58.7,30.19,NNW,341,0.0,0.0,97,0.00,,,0.00,0.00,VWS V14.01,2013-10-31 05:22:00,
2013-10-31 01:27:00,59.5,58.7,30.19,NNW,341,0.0,0.0,97,0.00,,,0.00,0.00,VWS V14.01,2013-10-31 05:27:00,
2013-10-31 01:32:00,59.5,58.7,30.19,NNW,341,0.0,0.0,97,0.00,,,0.00,0.00,VWS V14.01,2013-10-31 05:32:00,
2013-10-31 01:37:00,59.6,58.8,30.19,NNW,341,0.0,0.0,97,0.00,,,0.00,0.00,VWS V14.01,2013-10-31 05:37:00,
2013-10-31 01:42:00,59.5,58.7,30.19,NNW,341,0.0,0.0,97,0.00,,,0.00,0.00,VWS V14.01,2013-10-31 05:42:00,
2013-10-31 01:47:00,59.3,58.5,30.18,NNW,341,0.0,0.0,97,0.00,,,0.00,0.00,VWS V14.01,2013-10-31 05:47:00,
2013-10-31 01:52:00,59.2,58.3,30.18,NNW,341,0.0,0.0,97,0.00,,,0.00,0.00,VWS V14.01,2013-10-31 05:52:00,
2013-10-31 01:57:00,59.1,58.2,30.18,NNW,341,0.0,0.0,97,0.00,,,0.00,0.00,VWS V14.01,2013-10-31 05:57:00,
2013-10-31 02:02:00,59.0,58.2,30.18,NNW,341,0.0,0.0,97,0.00,,,0.00,0.00,VWS V14.01,2013-10-31 06:02:00,
2013-10-31 02:07:00,59.0,58.2,30.17,NNW,341,0.0,0.0,97,0.00,,,0.00,0.00,VWS V14.01,2013-10-31 06:07:00,
2013-10-31 02:12:00,59.1,58.5,30.17,NNW,341,0.0,0.0,98,0.00,,,0.00,0.00,VWS V14.01,2013-10-31 06:12:00,
2013-10-31 02:17:00,59.1,58.5,30.17,NNW,341,0.0,0.0,98,0.00,,,0.00,0.00,VWS V14.01,2013-10-31 06:17:00,
2013-10-31 02:22:00,59.1,58.5,30.18,NNW,341,0.0,0.0,98,0.00,,CLR,0.00,0.00,VWS V14.01,2013-10-31 06:22:00,
2013-10-31 02:27:00,59.0,58.4,30.17,NNW,341,0.0,0.0,98,0.00,,CLR,0.00,0.00,VWS V14.01,2013-10-31 06:27:00,
2013-10-31 02:32:00,58.9,58.3,30.18,NNW,341,0.0,0.0,98,0.00,,CLR,0.00,0.00,VWS V14.01,2013-10-31 06:32:00,
2013-10-31 02:37:00,58.5,57.7,30.18,NNW,341,0.0,0.0,97,0.00,,CLR,0.00,0.00,VWS V14.01,2013-10-31 06:37:00,
2013-10-31 02:42:00,58.3,57.5,30.17,NNW,341,0.0,0.0,97,0.00,,CLR,0.00,0.00,VWS V14.01,2013-10-31 06:42:00,
2013-10-31 02:47:00,58.3,57.7,30.17,NNW,341,0.0,0.0,98,0.00,,CLR,0.00,0.00,VWS V14.01,2013-10-31 06:47:00,
2013-10-31 02:52:00,58.2,57.4,30.17,NNW,341,0.0,0.0,97,0.00,,CLR,0.00,0.00,VWS V14.01,2013-10-31 06:52:00,
2013-10-31 02:57:00,58.1,57.3,30.17,NNW,341,0.0,0.0,97,0.00,,CLR,0.00,0.00,VWS V14.01,2013-10-31 06:57:00,
2013-10-31 03:02:00,57.9,57.1,30.17,NNW,341,0.0,0.0,97,0.00,,,0.00,0.00,VWS V14.01,2013-10-31 07:02:00,
2013-10-31 03:07:00,57.9,57.3,30.17,NNW,341,0.0,0.0,98,0.00,,,0.00,0.00,VWS V14.01,2013-10-31 07:07:00,
2013-10-31 03:12:00,57.7,56.9,30.17,NNW,341,0.0,0.0,97,0.00,,,0.00,0.00,VWS V14.01,2013-10-31 07:12:00,
2013-10-31 03:17:00,57.6,57.0,30.17,NNW,341,0.0,0.0,98,0.00,,,0.00,0.00,VWS V14.01,2013-10-31 07:17:00,
2013-10-31 03:23:00,57.4,56.6,30.17,NNW,341,0.0,0.0,97,0.00,,CLR,0.00,0.00,VWS V14.01,2013-10-31 07:23:00,
2013-10-31 03:28:00,57.4,56.6,30.17,NNW,341,0.0,0.0,97,0.00,,CLR,0.00,0.00,VWS V14.01,2013-10-31 07:28:00,
2013-10-31 03:33:00,57.3,56.5,30.17,NNW,341,0.0,0.0,97,0.00,,CLR,0.00,0.00,VWS V14.01,2013-10-31 07:33:00,
2013-10-31 03:38:00,57.3,56.7,30.17,NNW,341,0.0,0.0,98,0.00,,CLR,0.00,0.00,VWS V14.01,2013-10-31 07:38:00,
2013-10-31 03:43:00,57.1,56.5,30.17,NNW,341,0.0,1.0,98,0.00,,CLR,0.00,0.00,VWS V14.01,2013-10-31 07:43:00,
2013-10-31 03:48:00,57.1,56.5,30.17,NNW,341,0.0,0.0,98,0.00,,CLR,0.00,0.00,VWS V14.01,2013-10-31 07:48:00,
2013-10-31 03:53:00,57.0,56.4,30.17,NNW,341,0.0,0.0,98,0.00,,CLR,0.00,0.00,VWS V14.01,2013-10-31 07:53:00,
2013-10-31 03:58:00,56.9,56.1,30.17,NNW,341,0.0,0.0,97,0.00,,CLR,0.00,0.00,VWS V14.01,2013-10-31 07:58:00,
2013-10-31 04:03:00,57.1,56.5,30.17,NNW,341,0.0,0.0,98,0.00,,CLR,0.00,0.00,VWS V14.01,2013-10-31 08:03:00,
2013-10-31 04:08:00,57.3,56.7,30.17,NNW,341,0.0,0.0,98,0.00,,CLR,0.00,0.00,VWS V14.01,2013-10-31 08:08:00,
2013-10-31 04:13:00,57.3,56.7,30.17,NNW,341,0.0,0.0,98,0.00,,CLR,0.00,0.00,VWS V14.01,2013-10-31 08:13:00,
2013-10-31 04:18:00,57.3,56.7,30.17,NNW,341,0.0,0.0,98,0.00,,CLR,0.00,0.00,VWS V14.01,2013-10-31 08:18:00,
2013-10-31 04:23:00,57.2,56.6,30.18,NNW,341,0.0,0.0,98,0.00,,BKN046,0.00,0.00,VWS V14.01,2013-10-31 08:23:00,
2013-10-31 04:28:00,57.1,56.5,30.18,NNW,341,0.0,0.0,98,0.00,,BKN046,0.00,0.00,VWS V14.01,2013-10-31 08:28:00,
2013-10-31 04:33:00,56.8,56.0,30.17,NNW,341,0.0,0.0,97,0.00,,BKN046,0.00,0.00,VWS V14.01,2013-10-31 08:33:00,
2013-10-31 04:38:00,56.9,56.3,30.17,NNW,341,0.0,0.0,98,0.00,,BKN046,0.00,0.00,VWS V14.01,2013-10-31 08:38:00,
2013-10-31 04:43:00,56.9,56.3,30.17,NNW,341,0.0,0.0,98,0.00,,BKN046,0.00,0.00,VWS V14.01,2013-10-31 08:43:00,
2013-10-31 04:48:00,56.7,56.1,30.17,NNW,341,0.0,0.0,98,0.00,,BKN046,0.00,0.00,VWS V14.01,2013-10-31 08:48:00,
2013-10-31 04:53:00,56.8,56.2,30.17,NNW,341,0.0,0.0,98,0.00,,BKN046,0.00,0.00,VWS V14.01,2013-10-31 08:53:00,
2013-10-31 04:58:00,56.9,56.3,30.17,NNW,341,0.0,0.0,98,0.00,,BKN046,0.00,0.00,VWS V14.01,2013-10-31 08:58:00,
2013-10-31 05:03:00,56.9,56.3,30.17,NNW,341,0.0,0.0,98,0.00,,FEW046,0.00,0.00,VWS V14.01,2013-10-31 09:03:00,
2013-10-31 05:08:00,57.2,56.6,30.17,NNW,341,0.0,0.0,98,0.00,,FEW046,0.00,0.00,VWS V14.01,2013-10-31 09:08:00,
2013-10-31 05:13:00,57.1,56.5,30.17,NNW,341,0.0,0.0,98,0.00,,FEW046,0.00,0.00,VWS V14.01,2013-10-31 09:13:00,
2013-10-31 05:18:00,57.1,56.5,30.18,NNW,341,0.0,0.0,98,0.00,,FEW046,0.00,0.00,VWS V14.01,2013-10-31 09:18:00,
2013-10-31 05:23:00,57.1,56.5,30.18,NNW,341,0.0,0.0,98,0.00,,CLR,0.00,0.00,VWS V14.01,2013-10-31 09:23:00,
2013-10-31 05:28:00,57.3,56.7,30.18,NNW,341,0.0,0.0,98,0.00,,CLR,0.00,0.00,VWS V14.01,2013-10-31 09:28:00,
2013-10-31 05:33:00,57.3,56.7,30.18,NNW,341,0.0,0.0,98,0.00,,CLR,0.00,0.00,VWS V14.01,2013-10-31 09:33:00,
2013-10-31 05:38:00,57.3,56.7,30.18,NNW,341,0.0,0.0,98,0.00,,CLR,0.00,0.00,VWS V14.01,2013-10-31 09:38:00,
2013-10-31 05:43:00,57.3,56.7,30.18,NNW,341,0.0,0.0,98,0.00,,BKN048,0.00,0.00,VWS V14.01,2013-10-31 09:43:00,
2013-10-31 05:48:00,57.3,56.7,30.18,NNW,341,0.0,0.0,98,0.00,,BKN048,0.00,0.00,VWS V14.01,2013-10-31 09:48:00,
2013-10-31 05:53:00,57.5,56.9,30.18,NNW,341,0.0,0.0,98,0.00,,BKN048,0.00,0.00,VWS V14.01,2013-10-31 09:53:00,
2013-10-31 05:58:00,57.5,56.9,30.18,NNW,341,0.0,0.0,98,0.00,,BKN048,0.00,0.00,VWS V14.01,2013-10-31 09:58:00,
2013-10-31 06:03:00,57.5,56.9,30.18,NNW,341,0.0,0.0,98,0.00,,BKN048,0.00,0.00,VWS V14.01,2013-10-31 10:03:00,
2013-10-31 06:08:00,57.5,56.9,30.17,NNW,341,0.0,0.0,98,0.00,,BKN048,0.00,0.00,VWS V14.01,2013-10-31 10:08:00,
2013-10-31 06:13:00,57.5,56.9,30.17,NNW,341,0.0,0.0,98,0.00,,,0.00,0.00,VWS V14.01,2013-10-31 10:13:00,
2013-10-31 06:18:00,57.5,56.9,30.17,NNW,341,0.0,0.0,98,0.00,,,0.00,0.00,VWS V14.01,2013-10-31 10:18:00,
2013-10-31 06:23:00,57.5,56.9,30.17,NNW,341,0.0,0.0,98,0.00,,,0.00,0.00,VWS V14.01,2013-10-31 10:23:00,
2013-10-31 06:28:00,57.3,56.7,30.17,NNW,341,0.0,0.0,98,0.00,,,0.00,0.00,VWS V14.01,2013-10-31 10:28:00,
2013-10-31 06:33:00,57.3,56.7,30.17,NNW,341,0.0,0.0,98,0.00,,,0.00,0.00,VWS V14.01,2013-10-31 10:33:00,
2013-10-31 06:38:00,57.1,56.5,30.17,NNW,341,0.0,0.0,98,0.00,,,0.00,0.00,VWS V14.01,2013-10-31 10:38:00,
2013-10-31 06:43:00,56.9,56.3,30.17,NNW,341,0.0,0.0,98,0.00,,,0.00,0.00,VWS V14.01,2013-10-31 10:43:00,
2013-10-31 06:48:00,56.8,56.2,30.17,NNW,341,0.0,0.0,98,0.00,,,0.00,0.00,VWS V14.01,2013-10-31 10:48:00,
2013-10-31 06:53:00,56.8,56.2,30.17,NNW,341,0.0,0.0,98,0.00,,,0.00,0.00,VWS V14.01,2013-10-31 10:53:00,
2013-10-31 06:58:00,56.8,56.2,30.17,NNW,341,0.0,0.0,98,0.00,,,0.00,0.00,VWS V14.01,2013-10-31 10:58:00,
2013-10-31 07:03:00,56.7,56.1,30.17,NNW,341,0.0,0.0,98,0.00,,,0.00,0.00,VWS V14.01,2013-10-31 11:03:00,
2013-10-31 07:08:00,56.7,56.1,30.17,NNW,341,0.0,0.0,98,0.00,,,0.00,0.00,VWS V14.01,2013-10-31 11:08:00,
2013-10-31 07:13:00,56.6,56.0,30.17,NNW,341,0.0,0.0,98,0.00,,,0.00,0.00,VWS V14.01,2013-10-31 11:13:00,
2013-10-31 07:18:00,56.7,56.1,30.17,NNW,341,0.0,0.0,98,0.00,,,0.00,0.00,VWS V14.01,2013-10-31 11:18:00,
2013-10-31 07:23:00,56.6,56.0,30.17,NNW,341,0.0,0.0,98,0.00,,,0.00,0.00,VWS V14.01,2013-10-31 11:23:00,
2013-10-31 07:28:00,56.5,55.9,30.17,NNW,341,0.0,0.0,98,0.00,,,0.00,5.00,VWS V14.01,2013-10-31 11:28:00,
2013-10-31 07:33:00,56.6,56.0,30.17,NNW,341,0.0,0.0,98,0.00,,,0.00,9.00,VWS V14.01,2013-10-31 11:33:00,
2013-10-31 07:38:00,56.5,55.9,30.17,NNW,341,0.0,0.0,98,0.00,,,0.00,11.00,VWS V14.01,2013-10-31 11:38:00,
2013-10-31 07:43:00,56.5,55.9,30.17,NNW,341,0.0,0.0,98,0.00,,,0.00,16.00,VWS V14.01,2013-10-31 11:43:00,
2013-10-31 07:48:00,56.4,55.8,30.17,NNW,341,0.0,0.0,98,0.00,,,0.00,21.00,VWS V14.01,2013-10-31 11:48:00,
2013-10-31 07:53:00,56.6,56.0,30.17,NNW,341,0.0,0.0,98,0.00,,,0.00,25.00,VWS V14.01,2013-10-31 11:53:00,
2013-10-31 07:58:00,56.7,56.1,30.17,NNW,341,0.0,0.0,98,0.00,,,0.00,28.00,VWS V14.01,2013-10-31 11:58:00,
2013-10-31 08:03:00,56.8,56.2,30.17,NNW,341,0.0,0.0,98,0.00,,,0.00,32.00,VWS V14.01,2013-10-31 12:03:00,
2013-10-31 08:08:00,56.9,56.3,30.17,NNW,341,0.0,0.0,98,0.00,,,0.00,35.00,VWS V14.01,2013-10-31 12:08:00,
2013-10-31 08:13:00,57.1,56.5,30.17,NNW,341,0.0,0.0,98,0.00,,,0.00,39.00,VWS V14.01,2013-10-31 12:13:00,
2013-10-31 08:18:00,57.2,56.6,30.17,NNW,341,0.0,0.0,98,0.00,,,0.00,39.00,VWS V14.01,2013-10-31 12:18:00,
2013-10-31 08:23:00,57.5,56.9,30.17,NNW,341,0.0,1.0,98,0.00,,,0.00,51.00,VWS V14.01,2013-10-31 12:23:00,
2013-10-31 08:28:00,57.6,57.0,30.18,NNW,341,0.0,0.0,98,0.00,,,0.00,42.00,VWS V14.01,2013-10-31 12:28:00,
2013-10-31 08:33:00,57.8,57.2,30.18,NNW,341,0.0,0.0,98,0.00,,,0.00,51.00,VWS V14.01,2013-10-31 12:33:00,
2013-10-31 08:38:00,58.2,57.6,30.17,NNW,341,0.0,0.0,98,0.00,,,0.00,60.00,VWS V14.01,2013-10-31 12:38:00,
2013-10-31 08:43:00,59.0,58.4,30.17,NNW,341,0.0,0.0,98,0.00,,,0.00,69.00,VWS V14.01,2013-10-31 12:43:00,
2013-10-31 08:48:00,59.7,59.1,30.17,NNW,341,0.0,0.0,98,0.00,,,0.00,155.00,VWS V14.01,2013-10-31 12:48:00,
2013-10-31 08:53:00,60.5,60.2,30.17,NNW,341,0.0,0.0,99,0.00,,,0.00,225.00,VWS V14.01,2013-10-31 12:53:00,
2013-10-31 08:58:00,61.3,60.7,30.17,NNW,341,0.0,0.0,98,0.00,,,0.00,221.00,VWS V14.01,2013-10-31 12:58:00,
2013-10-31 09:03:00,62.0,61.4,30.17,NNW,341,0.0,0.0,98,0.00,,CLR,0.00,230.00,VWS V14.01,2013-10-31 13:03:00,
2013-10-31 09:08:00,63.1,62.2,30.17,NNW,341,0.0,0.0,97,0.00,,CLR,0.00,250.00,VWS V14.01,2013-10-31 13:08:00,
2013-10-31 09:13:00,64.0,62.8,30.17,NNW,341,0.0,0.0,96,0.00,,CLR,0.00,271.00,VWS V14.01,2013-10-31 13:13:00,
2013-10-31 09:18:00,64.9,63.1,30.17,NNW,341,0.0,0.0,94,0.00,,CLR,0.00,292.00,VWS V14.01,2013-10-31 13:18:00,
2013-10-31 09:23:00,65.7,63.3,30.17,NNW,341,0.0,1.0,92,0.00,,CLR,0.00,246.00,VWS V14.01,2013-10-31 13:23:00,
2013-10-31 09:28:00,66.3,63.6,30.17,NNW,341,0.0,0.0,91,0.00,,CLR,0.00,302.00,VWS V14.01,2013-10-31 13:28:00,
2013-10-31 09:33:00,67.1,63.4,30.17,NNW,341,1.0,1.0,88,0.00,,CLR,0.00,278.00,VWS V14.01,2013-10-31 13:33:00,
2013-10-31 09:38:00,67.6,63.6,30.17,NE,49,0.0,2.0,87,0.01,,CLR,0.01,327.00,VWS V14.01,2013-10-31 13:38:00,
2013-10-31 09:43:00,67.7,63.0,30.17,East,94,2.0,3.0,85,0.01,,CLR,0.01,350.00,VWS V14.01,2013-10-31 13:43:00,
2013-10-31 09:48:00,68.0,63.0,30.17,East,94,1.0,2.0,84,0.01,,CLR,0.01,359.00,VWS V14.01,2013-10-31 13:48:00,
2013-10-31 09:53:00,68.2,63.2,30.17,East,94,2.0,3.0,84,0.01,,CLR,0.01,374.00,VWS V14.01,2013-10-31 13:53:00,
2013-10-31 09:58:00,68.3,62.9,30.17,East,94,0.0,2.0,83,0.01,,CLR,0.01,322.00,VWS V14.01,2013-10-31 13:58:00,
2013-10-31 10:03:00,68.4,63.0,30.17,East,94,2.0,2.0,83,0.01,,CLR,0.01,380.00,VWS V14.01,2013-10-31 14:03:00,
2013-10-31 10:08:00,68.9,63.2,30.17,East,100,1.0,2.0,82,0.01,,CLR,0.01,425.00,VWS V14.01,2013-10-31 14:08:00,
2013-10-31 10:13:00,68.9,63.2,30.17,ESE,102,2.0,5.0,82,0.01,,CLR,0.01,448.00,VWS V14.01,2013-10-31 14:13:00,
2013-10-31 10:18:00,68.8,63.1,30.17,East,88,1.0,3.0,82,0.01,,CLR,0.01,466.00,VWS V14.01,2013-10-31 14:18:00,
2013-10-31 10:23:00,69.0,62.9,30.17,East,95,1.0,3.0,81,0.01,,CLR,0.01,476.00,VWS V14.01,2013-10-31 14:23:00,
2013-10-31 10:28:00,69.4,63.3,30.16,South,184,0.0,3.0,81,0.01,,CLR,0.01,492.00,VWS V14.01,2013-10-31 14:28:00,
2013-10-31 10:33:00,70.1,63.3,30.16,SSE,148,0.0,2.0,79,0.01,,CLR,0.01,413.00,VWS V14.01,2013-10-31 14:33:00,
2013-10-31 10:38:00,69.9,63.5,30.16,SE,135,3.0,3.0,80,0.00,,CLR,0.01,506.00,VWS V14.01,2013-10-31 14:38:00,
2013-10-31 10:43:00,69.4,63.3,30.16,East,87,3.0,5.0,81,0.00,,CLR,0.01,527.00,VWS V14.01,2013-10-31 14:43:00,
2013-10-31 10:48:00,68.9,63.5,30.16,ESE,103,3.0,5.0,83,0.00,,CLR,0.01,513.00,VWS V14.01,2013-10-31 14:48:00,
2013-10-31 10:53:00,68.8,63.8,30.16,ESE,112,2.0,6.0,84,0.00,,CLR,0.01,550.00,VWS V14.01,2013-10-31 14:53:00,
2013-10-31 10:58:00,69.0,64.0,30.16,ESE,121,2.0,5.0,84,0.00,,CLR,0.01,563.00,VWS V14.01,2013-10-31 14:58:00,
2013-10-31 11:03:00,69.8,64.1,30.16,ESE,103,3.0,5.0,82,0.00,,CLR,0.01,575.00,VWS V14.01,2013-10-31 15:03:00,
2013-10-31 11:08:00,69.7,64.0,30.16,East,89,1.0,5.0,82,0.00,,CLR,0.01,584.00,VWS V14.01,2013-10-31 15:08:00,
2013-10-31 11:13:00,69.3,64.3,30.17,SSE,149,3.0,6.0,84,0.00,,CLR,0.01,612.00,VWS V14.01,2013-10-31 15:13:00,
2013-10-31 11:18:00,69.6,64.6,30.17,SE,144,1.0,3.0,84,0.00,,CLR,0.01,698.00,VWS V14.01,2013-10-31 15:18:00,
2013-10-31 11:23:00,69.7,64.7,30.17,ESE,117,3.0,3.0,84,0.00,,CLR,0.01,652.00,VWS V14.01,2013-10-31 15:23:00,
2013-10-31 11:28:00,70.2,65.1,30.16,SE,134,1.0,2.0,84,0.00,,CLR,0.01,475.00,VWS V14.01,2013-10-31 15:28:00,
2013-10-31 11:33:00,70.5,65.1,30.16,East,101,5.0,5.0,83,0.00,,CLR,0.01,624.00,VWS V14.01,2013-10-31 15:33:00,
2013-10-31 11:38:00,69.6,65.2,30.16,SE,137,2.0,4.0,86,0.00,,CLR,0.01,617.00,VWS V14.01,2013-10-31 15:38:00,
2013-10-31 11:43:00,70.0,65.3,30.16,East,97,2.0,4.0,85,0.00,,CLR,0.01,647.00,VWS V14.01,2013-10-31 15:43:00,
2013-10-31 11:48:00,71.1,66.0,30.16,East,90,5.0,5.0,84,0.00,,CLR,0.01,657.00,VWS V14.01,2013-10-31 15:48:00,
2013-10-31 11:53:00,70.3,65.6,30.16,East,100,5.0,5.0,85,0.00,,CLR,0.01,664.00,VWS V14.01,2013-10-31 15:53:00,
2013-10-31 11:58:00,70.6,65.5,30.15,East,101,0.0,2.0,84,0.00,,CLR,0.01,640.00,VWS V14.01,2013-10-31 15:58:00,
2013-10-31 12:03:00,72.0,66.6,30.15,ENE,76,3.0,3.0,83,0.00,,FEW039,0.01,661.00,VWS V14.01,2013-10-31 16:03:00,
2013-10-31 12:08:00,71.5,66.1,30.15,ESE,102,1.0,3.0,83,0.00,,FEW039,0.01,643.00,VWS V14.01,2013-10-31 16:08:00,
2013-10-31 12:13:00,71.8,66.0,30.15,ESE,105,3.0,4.0,82,0.00,,FEW039,0.01,645.00,VWS V14.01,2013-10-31 16:13:00,
2013-10-31 12:18:00,71.4,66.0,30.15,South,188,2.0,4.0,83,0.00,,FEW039,0.01,657.00,VWS V14.01,2013-10-31 16:18:00,
2013-10-31 12:23:00,72.3,66.5,30.15,SSE,163,1.0,3.0,82,0.00,,FEW039,0.01,636.00,VWS V14.01,2013-10-31 16:23:00,
2013-10-31 12:28:00,72.3,66.5,30.14,ESE,119,0.0,3.0,82,0.00,,FEW039,0.01,670.00,VWS V14.01,2013-10-31 16:28:00,
2013-10-31 12:33:00,72.6,66.4,30.14,SSW,200,1.0,3.0,81,0.00,,FEW039,0.01,668.00,VWS V14.01,2013-10-31 16:33:00,
2013-10-31 12:38:00,73.0,66.8,30.14,SSW,211,3.0,4.0,81,0.00,,FEW039,0.01,633.00,VWS V14.01,2013-10-31 16:38:00,
2013-10-31 12:43:00,73.0,66.8,30.14,SW,221,2.0,4.0,81,0.00,,FEW039,0.01,629.00,VWS V14.01,2013-10-31 16:43:00,
2013-10-31 12:48:00,72.4,66.2,30.13,SSW,194,3.0,5.0,81,0.00,,FEW039,0.01,606.00,VWS V14.01,2013-10-31 16:48:00,
2013-10-31 12:53:00,71.7,66.3,30.13,SSW,193,1.0,4.0,83,0.00,,FEW039,0.01,582.00,VWS V14.01,2013-10-31 16:53:00,
2013-10-31 12:58:00,71.7,66.3,30.13,South,187,2.0,4.0,83,0.00,,FEW039,0.01,679.00,VWS V14.01,2013-10-31 16:58:00,
2013-10-31 13:03:00,72.3,66.5,30.13,SSE,165,0.0,2.0,82,0.00,,SCT039,0.01,675.00,VWS V14.01,2013-10-31 17:03:00,
2013-10-31 13:08:00,73.3,66.8,30.12,East,96,0.0,2.0,80,0.00,,SCT039,0.01,661.00,VWS V14.01,2013-10-31 17:08:00,
2013-10-31 13:13:00,73.5,66.6,30.12,South,183,1.0,5.0,79,0.00,,SCT039,0.01,668.00,VWS V14.01,2013-10-31 17:13:00,
2013-10-31 13:18:00,72.6,66.4,30.11,ESE,120,2.0,3.0,81,0.00,,SCT039,0.01,624.00,VWS V14.01,2013-10-31 17:18:00,
2013-10-31 13:23:00,71.9,66.1,30.11,SW,215,2.0,4.0,82,0.00,,SCT039,0.01,686.00,VWS V14.01,2013-10-31 17:23:00,
2013-10-31 13:28:00,71.9,66.1,30.11,ESE,116,1.0,5.0,82,0.00,,SCT039,0.01,679.00,VWS V14.01,2013-10-31 17:28:00,
2013-10-31 13:33:00,72.1,66.3,30.10,SE,128,5.0,5.0,82,0.00,,SCT039,0.01,642.00,VWS V14.01,2013-10-31 17:33:00,
2013-10-31 13:38:00,72.5,66.7,30.10,East,101,3.0,4.0,82,0.00,,SCT039,0.01,707.00,VWS V14.01,2013-10-31 17:38:00,
2013-10-31 13:43:00,72.3,66.5,30.10,SSE,161,1.0,2.0,82,0.00,,SCT039,0.01,504.00,VWS V14.01,2013-10-31 17:43:00,
2013-10-31 13:48:00,73.0,67.2,30.10,ESE,111,1.0,2.0,82,0.00,,SCT039,0.01,485.00,VWS V14.01,2013-10-31 17:48:00,
2013-10-31 13:53:00,73.1,66.9,30.10,South,182,3.0,3.0,81,0.00,,SCT039,0.01,650.00,VWS V14.01,2013-10-31 17:53:00,
2013-10-31 13:58:00,73.2,67.4,30.10,SW,227,4.0,6.0,82,0.00,,SCT039,0.01,670.00,VWS V14.01,2013-10-31 17:58:00,
2013-10-31 14:03:00,73.6,67.4,30.09,SW,223,5.0,6.0,81,0.00,,SCT040,0.01,657.00,VWS V14.01,2013-10-31 18:03:00,
2013-10-31 14:08:00,73.2,67.0,30.09,SW,218,6.0,7.0,81,0.00,,SCT040,0.01,649.00,VWS V14.01,2013-10-31 18:08:00,
2013-10-31 14:13:00,73.4,67.2,30.09,SW,236,4.0,8.0,81,0.00,,SCT040,0.01,612.00,VWS V14.01,2013-10-31 18:13:00,
2013-10-31 14:18:00,73.4,67.2,30.09,WSW,249,7.0,7.0,81,0.00,,SCT040,0.01,573.00,VWS V14.01,2013-10-31 18:18:00,
2013-10-31 14:23:00,73.7,67.5,30.09,SSE,163,0.0,2.0,81,0.00,,SCT040,0.01,394.00,VWS V14.01,2013-10-31 18:23:00,
2013-10-31 14:28:00,72.7,66.9,30.09,SSW,202,4.0,5.0,82,0.00,,SCT040,0.01,385.00,VWS V14.01,2013-10-31 18:28:00,
2013-10-31 14:33:00,72.3,67.2,30.08,SSE,157,2.0,3.0,84,0.00,,SCT040,0.01,415.00,VWS V14.01,2013-10-31 18:33:00,
2013-10-31 14:38:00,72.8,67.0,30.08,WSW,249,5.0,5.0,82,0.00,,SCT040,0.01,360.00,VWS V14.01,2013-10-31 18:38:00,
2013-10-31 14:43:00,72.9,67.4,30.08,SW,225,0.0,2.0,83,0.00,,SCT040,0.01,313.00,VWS V14.01,2013-10-31 18:43:00,
2013-10-31 14:48:00,73.3,67.5,30.08,South,182,3.0,4.0,82,0.00,,SCT040,0.01,341.00,VWS V14.01,2013-10-31 18:48:00,
2013-10-31 14:53:00,72.8,67.3,30.08,East,93,0.0,1.0,83,0.00,,SCT040,0.01,643.00,VWS V14.01,2013-10-31 18:53:00,
2013-10-31 14:58:00,73.2,67.4,30.07,SE,126,3.0,5.0,82,0.00,,SCT040,0.01,399.00,VWS V14.01,2013-10-31 18:58:00,
2013-10-31 15:03:00,73.1,67.6,30.07,SSE,150,0.0,3.0,83,0.00,,FEW040,0.01,563.00,VWS V14.01,2013-10-31 19:03:00,
2013-10-31 15:08:00,74.0,67.8,30.07,SE,127,1.0,1.0,81,0.00,,FEW040,0.01,548.00,VWS V14.01,2013-10-31 19:08:00,
2013-10-31 15:13:00,74.8,68.2,30.08,SSW,208,5.0,5.0,80,0.00,,FEW040,0.01,206.00,VWS V14.01,2013-10-31 19:13:00,
2013-10-31 15:18:00,73.7,67.9,30.07,SSW,209,2.0,4.0,82,0.00,,FEW040,0.01,199.00,VWS V14.01,2013-10-31 19:18:00,
2013-10-31 15:23:00,73.3,67.5,30.07,SW,225,2.0,4.0,82,0.00,,FEW040,0.01,243.00,VWS V14.01,2013-10-31 19:23:00,
2013-10-31 15:28:00,74.4,68.6,30.07,SW,225,4.0,5.0,82,0.00,,FEW040,0.01,327.00,VWS V14.01,2013-10-31 19:28:00,
2013-10-31 15:33:00,74.0,67.8,30.07,SSW,196,3.0,4.0,81,0.00,,FEW040,0.01,239.00,VWS V14.01,2013-10-31 19:33:00,
2013-10-31 15:38:00,73.4,67.6,30.07,SW,222,5.0,6.0,82,0.00,,FEW040,0.01,193.00,VWS V14.01,2013-10-31 19:38:00,
2013-10-31 15:43:00,73.0,67.5,30.07,SW,219,3.0,6.0,83,0.00,,FEW040,0.01,179.00,VWS V14.01,2013-10-31 19:43:00,
2013-10-31 15:48:00,72.9,67.8,30.07,SSW,207,2.0,2.0,84,0.00,,FEW040,0.01,153.00,VWS V14.01,2013-10-31 19:48:00,
2013-10-31 15:53:00,73.4,67.9,30.07,SW,220,3.0,4.0,83,0.00,,FEW040,0.01,169.00,VWS V14.01,2013-10-31 19:53:00,
2013-10-31 15:58:00,73.5,68.0,30.07,SSW,212,3.0,6.0,83,0.00,,FEW040,0.01,220.00,VWS V14.01,2013-10-31 19:58:00,
2013-10-31 16:03:00,73.8,68.3,30.07,WSW,248,3.0,5.0,83,0.00,,FEW040,0.01,287.00,VWS V14.01,2013-10-31 20:03:00,
2013-10-31 16:08:00,74.7,68.5,30.07,SSW,210,5.0,5.0,81,0.00,,FEW040,0.01,563.00,VWS V14.01,2013-10-31 20:08:00,
2013-10-31 16:13:00,75.0,68.4,30.07,SSW,206,4.0,5.0,80,0.00,,FEW040,0.01,276.00,VWS V14.01,2013-10-31 20:13:00,
2013-10-31 16:18:00,74.7,68.1,30.06,SSW,196,2.0,5.0,80,0.00,,FEW040,0.01,211.00,VWS V14.01,2013-10-31 20:18:00,
2013-10-31 16:23:00,74.7,68.5,30.06,SW,215,5.0,5.0,81,0.00,,FEW040,0.01,185.00,VWS V14.01,2013-10-31 20:23:00,
2013-10-31 16:28:00,74.9,68.7,30.06,SSW,209,1.0,4.0,81,0.00,,FEW040,0.01,204.00,VWS V14.01,2013-10-31 20:28:00,
2013-10-31 16:33:00,74.7,68.1,30.06,SW,223,2.0,4.0,80,0.00,,FEW040,0.01,146.00,VWS V14.01,2013-10-31 20:33:00,
2013-10-31 16:38:00,74.2,68.0,30.06,South,191,3.0,5.0,81,0.00,,FEW040,0.01,128.00,VWS V14.01,2013-10-31 20:38:00,
2013-10-31 16:43:00,74.0,68.5,30.05,SSW,196,1.0,2.0,83,0.00,,FEW040,0.01,134.00,VWS V14.01,2013-10-31 20:43:00,
2013-10-31 16:48:00,73.8,68.3,30.05,SSW,194,3.0,3.0,83,0.00,,FEW040,0.01,134.00,VWS V14.01,2013-10-31 20:48:00,
2013-10-31 16:53:00,73.3,68.2,30.05,SSW,196,1.0,2.0,84,0.00,,FEW040,0.01,125.00,VWS V14.01,2013-10-31 20:53:00,
2013-10-31 16:58:00,73.0,68.2,30.05,SW,224,1.0,4.0,85,0.00,,FEW040,0.01,118.00,VWS V14.01,2013-10-31 20:58:00,
2013-10-31 17:03:00,72.9,68.5,30.05,SSW,200,1.0,1.0,86,0.00,,CLR,0.01,118.00,VWS V14.01,2013-10-31 21:03:00,
2013-10-31 17:08:00,73.1,68.7,30.05,South,182,0.0,2.0,86,0.00,,CLR,0.01,128.00,VWS V14.01,2013-10-31 21:08:00,
2013-10-31 17:13:00,73.0,68.6,30.05,South,182,1.0,2.0,86,0.00,,CLR,0.01,134.00,VWS V14.01,2013-10-31 21:13:00,
2013-10-31 17:18:00,73.0,68.6,30.05,West,279,1.0,2.0,86,0.00,,CLR,0.01,123.00,VWS V14.01,2013-10-31 21:18:00,
2013-10-31 17:23:00,72.9,68.8,30.05,South,172,1.0,3.0,87,0.00,,CLR,0.01,120.00,VWS V14.01,2013-10-31 21:23:00,
2013-10-31 17:28:00,72.8,68.7,30.04,SSE,168,2.0,2.0,87,0.00,,CLR,0.01,121.00,VWS V14.01,2013-10-31 21:28:00,
2013-10-31 17:33:00,72.8,68.7,30.04,SSW,196,1.0,1.0,87,0.00,,CLR,0.01,79.00,VWS V14.01,2013-10-31 21:33:00,
2013-10-31 17:38:00,72.7,68.9,30.04,South,180,1.0,1.0,88,0.00,,CLR,0.01,67.00,VWS V14.01,2013-10-31 21:38:00,
2013-10-31 17:43:00,72.6,68.8,30.04,South,171,0.0,1.0,88,0.00,,CLR,0.01,49.00,VWS V14.01,2013-10-31 21:43:00,
2013-10-31 17:48:00,72.2,68.4,30.03,SE,144,0.0,2.0,88,0.00,,CLR,0.01,39.00,VWS V14.01,2013-10-31 21:48:00,
2013-10-31 17:53:00,71.9,68.5,30.03,SE,133,0.0,0.0,89,0.00,,CLR,0.01,33.00,VWS V14.01,2013-10-31 21:53:00,
2013-10-31 17:58:00,71.7,68.6,30.03,SSE,150,1.0,1.0,90,0.00,,CLR,0.01,28.00,VWS V14.01,2013-10-31 21:58:00,
2013-10-31 18:03:00,71.6,68.5,30.03,SSE,150,0.0,0.0,90,0.00,,FEW040,0.01,23.00,VWS V14.01,2013-10-31 22:03:00,
2013-10-31 18:08:00,71.6,68.5,30.03,SSE,153,0.0,1.0,90,0.00,,FEW040,0.01,16.00,VWS V14.01,2013-10-31 22:08:00,
2013-10-31 18:13:00,71.5,68.4,30.03,SSE,155,0.0,1.0,90,0.00,,FEW040,0.01,11.00,VWS V14.01,2013-10-31 22:13:00,
2013-10-31 18:18:00,71.3,68.5,30.02,SSE,155,1.0,1.0,91,0.00,,FEW040,0.01,5.00,VWS V14.01,2013-10-31 22:18:00,
2013-10-31 18:23:00,71.1,68.3,30.02,SSE,155,0.0,1.0,91,0.00,,FEW040,0.01,0.00,VWS V14.01,2013-10-31 22:23:00,
2013-10-31 18:28:00,71.0,68.6,30.02,SSE,153,1.0,3.0,92,0.00,,FEW040,0.01,0.00,VWS V14.01,2013-10-31 22:28:00,
2013-10-31 18:33:00,70.9,68.5,30.02,SSE,155,1.0,1.0,92,0.00,,FEW040,0.01,0.00,VWS V14.01,2013-10-31 22:33:00,
2013-10-31 18:38:00,70.8,68.7,30.02,SSE,157,0.0,1.0,93,0.00,,FEW040,0.01,0.00,VWS V14.01,2013-10-31 22:38:00,
2013-10-31 18:43:00,70.7,68.6,30.02,SSW,194,1.0,1.0,93,0.00,,FEW040,0.01,0.00,VWS V14.01,2013-10-31 22:43:00,
2013-10-31 18:48:00,70.8,68.7,30.02,WSW,246,2.0,2.0,93,0.00,,FEW040,0.01,0.00,VWS V14.01,2013-10-31 22:48:00,
2013-10-31 18:53:00,70.8,68.7,30.02,WSW,250,2.0,3.0,93,0.00,,FEW040,0.01,0.00,VWS V14.01,2013-10-31 22:53:00,
2013-10-31 18:58:00,70.9,68.8,30.02,South,179,0.0,3.0,93,0.00,,FEW040,0.01,0.00,VWS V14.01,2013-10-31 22:58:00,
2013-10-31 19:03:00,70.8,68.7,30.02,SSW,209,1.0,2.0,93,0.00,,CLR,0.01,0.00,VWS V14.01,2013-10-31 23:03:00,
2013-10-31 19:08:00,70.8,68.7,30.02,South,186,2.0,3.0,93,0.00,,CLR,0.01,0.00,VWS V14.01,2013-10-31 23:08:00,
2013-10-31 19:13:00,70.8,68.7,30.02,SSW,206,2.0,3.0,93,0.00,,CLR,0.01,0.00,VWS V14.01,2013-10-31 23:13:00,
2013-10-31 19:18:00,70.8,68.7,30.02,South,180,0.0,1.0,93,0.00,,CLR,0.01,0.00,VWS V14.01,2013-10-31 23:18:00,
2013-10-31 19:23:00,70.8,68.7,30.02,South,188,0.0,3.0,93,0.00,,CLR,0.01,0.00,VWS V14.01,2013-10-31 23:23:00,
2013-10-31 19:28:00,70.8,68.7,30.02,South,185,0.0,0.0,93,0.00,,CLR,0.01,0.00,VWS V14.01,2013-10-31 23:28:00,
2013-10-31 19:33:00,70.9,68.8,30.02,SE,133,2.0,4.0,93,0.00,,CLR,0.01,0.00,VWS V14.01,2013-10-31 23:33:00,
2013-10-31 19:38:00,70.9,68.5,30.01,SE,133,2.0,2.0,92,0.00,,CLR,0.01,0.00,VWS V14.01,2013-10-31 23:38:00,
2013-10-31 19:43:00,71.0,68.6,30.01,WSW,250,1.0,2.0,92,0.00,,CLR,0.01,0.00,VWS V14.01,2013-10-31 23:43:00,
2013-10-31 19:48:00,71.2,68.8,30.02,WSW,245,0.0,4.0,92,0.00,,CLR,0.01,0.00,VWS V14.01,2013-10-31 23:48:00,
2013-10-31 19:53:00,71.2,68.8,30.02,SW,232,3.0,5.0,92,0.00,,CLR,0.01,0.00,VWS V14.01,2013-10-31 23:53:00,
2013-10-31 19:58:00,71.2,69.1,30.02,SSE,151,1.0,3.0,93,0.00,,CLR,0.01,0.00,VWS V14.01,2013-10-31 23:58:00,
2013-10-31 20:03:00,71.2,69.1,30.02,WSW,242,2.0,2.0,93,0.00,,CLR,0.01,0.00,VWS V14.01,2013-11-01 00:03:00,
2013-10-31 20:08:00,71.1,69.0,30.02,SSW,205,2.0,4.0,93,0.00,,CLR,0.01,0.00,VWS V14.01,2013-11-01 00:08:00,
2013-10-31 20:13:00,71.2,69.4,30.01,SE,135,0.0,3.0,94,0.00,,CLR,0.01,0.00,VWS V14.01,2013-11-01 00:13:00,
2013-10-31 20:18:00,71.2,69.4,30.00,SE,142,2.0,2.0,94,0.00,,CLR,0.01,0.00,VWS V14.01,2013-11-01 00:18:00,
2013-10-31 20:23:00,71.3,69.5,30.00,SE,143,1.0,3.0,94,0.00,,CLR,0.01,0.00,VWS V14.01,2013-11-01 00:23:00,
2013-10-31 20:28:00,71.4,69.6,30.00,West,277,1.0,3.0,94,0.00,,CLR,0.01,0.00,VWS V14.01,2013-11-01 00:28:00,
2013-10-31 20:33:00,71.4,69.6,30.00,SSW,194,1.0,6.0,94,0.00,,CLR,0.01,0.00,VWS V14.01,2013-11-01 00:33:00,
2013-10-31 20:38:00,71.3,69.5,30.00,SSW,211,1.0,6.0,94,0.00,,CLR,0.01,0.00,VWS V14.01,2013-11-01 00:38:00,
2013-10-31 20:43:00,71.3,69.5,30.00,SSW,194,0.0,3.0,94,0.00,,CLR,0.01,0.00,VWS V14.01,2013-11-01 00:43:00,
2013-10-31 20:48:00,71.3,69.5,30.01,South,180,2.0,4.0,94,0.00,,CLR,0.01,0.00,VWS V14.01,2013-11-01 00:48:00,
2013-10-31 20:53:00,71.5,69.7,30.00,South,184,1.0,3.0,94,0.00,,CLR,0.01,0.00,VWS V14.01,2013-11-01 00:53:00,
2013-10-31 20:58:00,71.7,69.6,30.00,South,189,3.0,3.0,93,0.00,,CLR,0.01,0.00,VWS V14.01,2013-11-01 00:58:00,
2013-10-31 21:03:00,71.9,69.4,30.00,SSW,209,4.0,5.0,92,0.00,,SCT030,0.01,0.00,VWS V14.01,2013-11-01 01:03:00,
2013-10-31 21:08:00,72.1,69.7,30.00,SW,218,4.0,4.0,92,0.00,,SCT030,0.01,0.00,VWS V14.01,2013-11-01 01:08:00,
2013-10-31 21:13:00,72.3,69.5,30.01,SW,232,3.0,6.0,91,0.00,,SCT030,0.01,0.00,VWS V14.01,2013-11-01 01:13:00,
2013-10-31 21:18:00,72.4,69.6,30.01,WSW,240,5.0,6.0,91,0.00,,SCT030,0.01,0.00,VWS V14.01,2013-11-01 01:18:00,
2013-10-31 21:23:00,72.5,69.7,30.01,WSW,243,4.0,4.0,91,0.00,,SCT030,0.01,0.00,VWS V14.01,2013-11-01 01:23:00,
2013-10-31 21:28:00,72.5,69.7,30.01,SW,221,4.0,5.0,91,0.00,,SCT030,0.01,0.00,VWS V14.01,2013-11-01 01:28:00,
2013-10-31 21:33:00,72.6,69.8,30.01,SW,227,1.0,6.0,91,0.00,,SCT030,0.01,0.00,VWS V14.01,2013-11-01 01:33:00,
2013-10-31 21:38:00,72.7,69.9,30.01,SSW,200,3.0,7.0,91,0.00,,SCT030,0.01,0.00,VWS V14.01,2013-11-01 01:38:00,
2013-10-31 21:43:00,72.7,69.9,30.00,SSW,200,3.0,6.0,91,0.00,,SCT030,0.01,0.00,VWS V14.01,2013-11-01 01:43:00,
2013-10-31 21:48:00,72.7,69.9,30.00,South,190,4.0,7.0,91,0.00,,SCT030,0.01,0.00,VWS V14.01,2013-11-01 01:48:00,
2013-10-31 21:53:00,72.6,69.5,30.00,WSW,242,5.0,7.0,90,0.00,,SCT030,0.01,0.00,VWS V14.01,2013-11-01 01:53:00,
2013-10-31 21:58:00,72.6,69.5,30.00,SSW,213,5.0,6.0,90,0.00,,SCT030,0.01,0.00,VWS V14.01,2013-11-01 01:58:00,
2013-10-31 22:03:00,72.6,69.5,30.00,WSW,246,4.0,5.0,90,0.00,,BKN080,0.01,0.00,VWS V14.01,2013-11-01 02:03:00,
2013-10-31 22:08:00,72.6,69.5,30.00,SSW,213,5.0,5.0,90,0.00,,BKN080,0.01,0.00,VWS V14.01,2013-11-01 02:08:00,
2013-10-31 22:13:00,72.5,69.4,30.00,SW,215,6.0,6.0,90,0.00,,BKN080,0.01,0.00,VWS V14.01,2013-11-01 02:13:00,
2013-10-31 22:18:00,72.5,69.4,30.00,SW,217,4.0,5.0,90,0.00,,BKN080,0.01,0.00,VWS V14.01,2013-11-01 02:18:00,
2013-10-31 22:23:00,72.5,69.4,30.01,SSW,206,3.0,9.0,90,0.00,,BKN080,0.01,0.00,VWS V14.01,2013-11-01 02:23:00,
2013-10-31 22:28:00,72.5,69.1,30.00,SW,214,3.0,6.0,89,0.00,,BKN080,0.01,0.00,VWS V14.01,2013-11-01 02:28:00,
2013-10-31 22:33:00,72.5,69.1,30.00,WSW,247,4.0,7.0,89,0.00,,BKN080,0.01,0.00,VWS V14.01,2013-11-01 02:33:00,
2013-10-31 22:38:00,72.5,69.1,30.00,WSW,240,7.0,8.0,89,0.00,,BKN080,0.01,0.00,VWS V14.01,2013-11-01 02:38:00,
2013-10-31 22:43:00,72.5,69.1,30.00,SW,219,6.0,6.0,89,0.00,,BKN080,0.01,0.00,VWS V14.01,2013-11-01 02:43:00,
2013-10-31 22:48:00,72.5,69.1,29.99,SW,231,4.0,7.0,89,0.00,,BKN080,0.01,0.00,VWS V14.01,2013-11-01 02:48:00,
2013-10-31 22:53:00,72.4,69.0,29.99,SSW,213,7.0,7.0,89,0.00,,BKN080,0.01,0.00,VWS V14.01,2013-11-01 02:53:00,
2013-10-31 22:58:00,72.4,69.0,29.99,SW,219,3.0,9.0,89,0.00,,BKN080,0.01,0.00,VWS V14.01,2013-11-01 02:58:00,
2013-10-31 23:03:00,72.5,69.1,29.99,SE,136,8.0,9.0,89,0.00,,OVC070,0.01,0.00,VWS V14.01,2013-11-01 03:03:00,
2013-10-31 23:08:00,72.5,69.1,29.99,South,186,5.0,7.0,89,0.00,,OVC070,0.01,0.00,VWS V14.01,2013-11-01 03:08:00,
2013-10-31 23:13:00,72.5,69.1,30.00,SW,233,8.0,15.0,89,0.00,,OVC070,0.01,0.00,VWS V14.01,2013-11-01 03:13:00,
2013-10-31 23:18:00,72.4,68.7,30.00,SW,219,8.0,15.0,88,0.00,,OVC070,0.01,0.00,VWS V14.01,2013-11-01 03:18:00,
2013-10-31 23:23:00,72.0,68.3,29.99,SW,214,12.0,12.0,88,0.00,,OVC070,0.01,0.00,VWS V14.01,2013-11-01 03:23:00,
2013-10-31 23:28:00,71.5,68.1,30.00,SSW,193,13.0,13.0,89,0.00,,OVC070,0.01,0.00,VWS V14.01,2013-11-01 03:28:00,
2013-10-31 23:33:00,71.2,68.1,29.99,SSW,210,9.0,10.0,90,0.00,,OVC070,0.01,0.00,VWS V14.01,2013-11-01 03:33:00,
2013-10-31 23:38:00,71.0,67.6,30.00,SW,225,9.0,13.0,89,0.00,,OVC070,0.01,0.00,VWS V14.01,2013-11-01 03:38:00,
2013-10-31 23:43:00,71.0,67.3,30.00,South,190,12.0,14.0,88,0.00,,BKN049,0.01,0.00,VWS V14.01,2013-11-01 03:43:00,
2013-10-31 23:48:00,71.1,67.4,29.99,WSW,238,12.0,12.0,88,0.00,,BKN049,0.01,0.00,VWS V14.01,2013-11-01 03:48:00,
2013-10-31 23:53:00,71.0,67.3,29.99,WSW,239,6.0,8.0,88,0.00,,BKN049,0.01,0.00,VWS V14.01,2013-11-01 03:53:00,
2013-10-31 23:58:00,70.8,67.4,29.99,SW,229,7.0,8.0,89,0.00,,BKN049,0.01,0.00,VWS V14.01,2013-11-01 03:58:00,